sat.trackr.live / text

‹ back to catalog

STARLINK-11554 [DTC]

NORAD 62833 · 2025-019E

PAYLOAD ACTIVE UNKNOWN

§ Identity

Operator
Country
US
Launch date
2025-01-27
Launch site
AFETR
Launch vehicle
Mass (kg)
RCS (m²)

Purposes: comms

External: N2YO · Heavens-Above · Gunter

§ Orbital elements

Epoch: 2026-05-25T04:00:03.998880Z

Period
91.67 min
Inclination
43.0009°
Eccentricity
0.0001474
Mean motion
15.70812347 rev/d
Perigee alt
355.6 km
Apogee alt
357.6 km
Semi-major
6,734.7 km
B*
2.1716e-4
RAAN
205.3096°
Arg perigee
256.7540°
Mean anomaly
159.0658°
Rev number
598

§ Raw data

STARLINK-11554 [DTC]1 62833U 25019E   26145.16671295  .00027476  00000+0  21716-3 0  99992 62833  43.0009 205.3096 0001474 256.7540 159.0658 15.70812347  5984

JSON: /api/v1/satellites/62833 · /tle

For live sub-satellite position, see the globe view (requires WebGL).

§ Visibility from observer

Set your observer location to see the next 7 days of passes ≥ 10°. The values pass through the URL so the page stays shareable.

No JS? Fill the form by hand. The geolocation button needs JavaScript.